Time,TemperatureF,DewpointF,PressureIn,WindDirection,WindDirectionDegrees,WindSpeedMPH,WindSpeedGustMPH,Humidity,HourlyPrecipIn,Conditions,Clouds,dailyrainin,SoftwareType,DateUTC
2013-04-26 00:01:00,49.8,37.3,30.00,SSE,165,10.0,10.0,62,0.00,,,0.00,Wunderground v.1.15,2013-04-26 05:01:00,
2013-04-26 00:07:00,49.7,37.6,29.99,SSE,163,8.0,10.0,63,0.00,,,0.00,Wunderground v.1.15,2013-04-26 05:07:00,
2013-04-26 00:13:00,49.7,37.6,29.99,SSE,160,14.0,14.0,63,0.00,,,0.00,Wunderground v.1.15,2013-04-26 05:13:00,
2013-04-26 00:18:00,49.6,37.5,29.98,SSE,161,13.0,14.0,63,0.00,,,0.00,Wunderground v.1.15,2013-04-26 05:18:00,
2013-04-26 00:23:00,49.5,37.4,29.98,South,169,14.0,14.0,63,0.00,,,0.00,Wunderground v.1.15,2013-04-26 05:23:00,
2013-04-26 00:29:00,49.5,37.4,29.98,SSE,168,12.0,14.0,63,0.00,,,0.00,Wunderground v.1.15,2013-04-26 05:29:00,
2013-04-26 00:34:00,49.4,37.7,29.97,South,171,8.0,14.0,64,0.00,,,0.00,Wunderground v.1.15,2013-04-26 05:34:00,
2013-04-26 00:39:00,49.2,37.5,29.97,SSE,167,11.0,14.0,64,0.00,,,0.00,Wunderground v.1.15,2013-04-26 05:39:00,
2013-04-26 00:45:00,49.2,37.9,29.97,South,176,15.0,15.0,65,0.00,,,0.00,Wunderground v.1.15,2013-04-26 05:45:00,
2013-04-26 00:50:00,49.3,38.0,29.97,South,176,11.0,12.0,65,0.00,,,0.00,Wunderground v.1.15,2013-04-26 05:50:00,
2013-04-26 00:56:00,49.6,37.9,29.97,South,175,12.0,14.0,64,0.00,,,0.00,Wunderground v.1.15,2013-04-26 05:56:00,
2013-04-26 01:01:00,49.7,38.0,29.97,South,171,17.0,17.0,64,0.00,,,0.00,Wunderground v.1.15,2013-04-26 06:01:00,
2013-04-26 01:06:00,49.8,38.1,29.97,South,171,11.0,17.0,64,0.00,,,0.00,Wunderground v.1.15,2013-04-26 06:06:00,
2013-04-26 01:11:00,49.7,38.0,29.97,SSE,164,12.0,13.0,64,0.00,,,0.00,Wunderground v.1.15,2013-04-26 06:11:00,
2013-04-26 01:16:00,49.7,38.0,29.97,South,184,13.0,15.0,64,0.00,,,0.00,Wunderground v.1.15,2013-04-26 06:16:00,
2013-04-26 01:21:00,49.6,37.9,29.96,South,171,11.0,12.0,64,0.00,,,0.00,Wunderground v.1.15,2013-04-26 06:21:00,
2013-04-26 01:26:00,49.6,37.9,29.96,South,186,8.0,18.0,64,0.00,,,0.00,Wunderground v.1.15,2013-04-26 06:26:00,
2013-04-26 01:31:00,49.3,38.0,29.97,South,171,12.0,12.0,65,0.00,,,0.00,Wunderground v.1.15,2013-04-26 06:31:00,
2013-04-26 01:36:00,49.2,37.9,29.97,South,171,13.0,13.0,65,0.00,,,0.00,Wunderground v.1.15,2013-04-26 06:36:00,
2013-04-26 01:41:00,49.0,37.7,29.97,South,182,13.0,13.0,65,0.00,,,0.00,Wunderground v.1.15,2013-04-26 06:41:00,
2013-04-26 01:47:00,48.7,37.8,29.96,South,180,7.0,15.0,66,0.00,,,0.00,Wunderground v.1.15,2013-04-26 06:47:00,
2013-04-26 01:52:00,48.2,37.8,29.96,South,173,8.0,10.0,67,0.00,,,0.00,Wunderground v.1.15,2013-04-26 06:52:00,
2013-04-26 01:57:00,48.1,37.7,29.96,South,173,8.0,11.0,67,0.00,,,0.00,Wunderground v.1.15,2013-04-26 06:57:00,
2013-04-26 02:02:00,47.8,37.7,29.96,South,175,14.0,14.0,68,0.00,,,0.00,Wunderground v.1.15,2013-04-26 07:02:00,
2013-04-26 02:07:00,47.8,37.7,29.96,South,177,7.0,14.0,68,0.00,,,0.00,Wunderground v.1.15,2013-04-26 07:07:00,
2013-04-26 02:12:00,47.8,37.7,29.96,South,173,10.0,15.0,68,0.00,,,0.00,Wunderground v.1.15,2013-04-26 07:12:00,
2013-04-26 02:17:00,47.7,37.7,29.95,South,172,6.0,15.0,68,0.00,,,0.00,Wunderground v.1.15,2013-04-26 07:17:00,
2013-04-26 02:22:00,47.3,37.3,29.95,South,172,9.0,12.0,68,0.00,,,0.00,Wunderground v.1.15,2013-04-26 07:22:00,
2013-04-26 02:27:00,47.3,37.3,29.95,South,187,13.0,13.0,68,0.00,,,0.00,Wunderground v.1.15,2013-04-26 07:27:00,
2013-04-26 02:32:00,47.3,37.3,29.95,South,176,7.0,11.0,68,0.00,,,0.00,Wunderground v.1.15,2013-04-26 07:32:00,
2013-04-26 02:37:00,47.5,37.1,29.96,South,183,8.0,14.0,67,0.00,,,0.00,Wunderground v.1.15,2013-04-26 07:37:00,
2013-04-26 02:42:00,47.4,37.0,29.95,SSW,192,10.0,10.0,67,0.00,,,0.00,Wunderground v.1.15,2013-04-26 07:42:00,
2013-04-26 02:47:00,47.3,36.9,29.95,South,187,9.0,12.0,67,0.00,,,0.00,Wunderground v.1.15,2013-04-26 07:47:00,
2013-04-26 02:52:00,47.2,36.8,29.95,South,188,10.0,13.0,67,0.00,,,0.00,Wunderground v.1.15,2013-04-26 07:52:00,
2013-04-26 02:57:00,46.9,36.9,29.95,South,190,8.0,14.0,68,0.00,,,0.00,Wunderground v.1.15,2013-04-26 07:57:00,
2013-04-26 03:02:00,46.8,36.8,29.95,South,186,7.0,11.0,68,0.00,,,0.00,Wunderground v.1.15,2013-04-26 08:02:00,
2013-04-26 03:07:00,46.8,36.8,29.94,SSW,196,8.0,14.0,68,0.00,,,0.00,Wunderground v.1.15,2013-04-26 08:07:00,
2013-04-26 03:12:00,47.0,37.0,29.94,South,180,10.0,15.0,68,0.00,,,0.00,Wunderground v.1.15,2013-04-26 08:12:00,
2013-04-26 03:17:00,46.8,36.8,29.94,South,188,6.0,16.0,68,0.00,,,0.00,Wunderground v.1.15,2013-04-26 08:17:00,
2013-04-26 03:22:00,46.6,36.6,29.94,South,188,14.0,14.0,68,0.00,,,0.00,Wunderground v.1.15,2013-04-26 08:22:00,
2013-04-26 03:27:00,46.7,36.7,29.94,South,191,10.0,14.0,68,0.00,,,0.00,Wunderground v.1.15,2013-04-26 08:27:00,
2013-04-26 03:32:00,46.6,36.6,29.94,South,185,10.0,15.0,68,0.00,,,0.00,Wunderground v.1.15,2013-04-26 08:32:00,
2013-04-26 03:37:00,46.4,36.8,29.94,SSW,192,8.0,15.0,69,0.00,,,0.00,Wunderground v.1.15,2013-04-26 08:37:00,
2013-04-26 03:42:00,46.7,36.7,29.94,South,187,6.0,13.0,68,0.00,,,0.00,Wunderground v.1.15,2013-04-26 08:42:00,
2013-04-26 03:47:00,46.5,36.5,29.94,South,184,10.0,13.0,68,0.00,,,0.00,Wunderground v.1.15,2013-04-26 08:47:00,
2013-04-26 03:52:00,46.4,36.8,29.94,SSW,195,7.0,12.0,69,0.00,,,0.00,Wunderground v.1.15,2013-04-26 08:52:00,
2013-04-26 03:57:00,46.4,36.8,29.94,South,189,8.0,13.0,69,0.00,,,0.00,Wunderground v.1.15,2013-04-26 08:57:00,
2013-04-26 04:02:00,46.4,36.8,29.94,South,186,8.0,15.0,69,0.00,,,0.00,Wunderground v.1.15,2013-04-26 09:02:00,
2013-04-26 04:07:00,46.3,36.7,29.94,SSW,195,8.0,15.0,69,0.00,,,0.00,Wunderground v.1.15,2013-04-26 09:07:00,
2013-04-26 04:12:00,46.0,36.8,29.94,South,187,6.0,10.0,70,0.00,,,0.00,Wunderground v.1.15,2013-04-26 09:12:00,
2013-04-26 04:18:00,45.9,36.7,29.94,SSW,200,8.0,13.0,70,0.00,,,0.00,Wunderground v.1.15,2013-04-26 09:18:00,
2013-04-26 04:23:00,46.0,36.8,29.94,South,191,7.0,13.0,70,0.00,,,0.00,Wunderground v.1.15,2013-04-26 09:23:00,
2013-04-26 04:28:00,45.9,36.7,29.94,SSW,192,9.0,13.0,70,0.00,,,0.00,Wunderground v.1.15,2013-04-26 09:28:00,
2013-04-26 04:33:00,45.9,36.7,29.94,South,184,10.0,14.0,70,0.00,,,0.00,Wunderground v.1.15,2013-04-26 09:33:00,
2013-04-26 04:38:00,45.6,36.7,29.94,South,184,15.0,17.0,71,0.00,,,0.00,Wunderground v.1.15,2013-04-26 09:38:00,
2013-04-26 04:43:00,45.4,36.5,29.94,SSW,200,9.0,11.0,71,0.00,,,0.00,Wunderground v.1.15,2013-04-26 09:43:00,
2013-04-26 04:48:00,45.2,36.4,29.94,SSW,198,12.0,13.0,71,0.00,,,0.00,Wunderground v.1.15,2013-04-26 09:48:00,
2013-04-26 04:53:00,44.9,36.4,29.94,SSW,200,8.0,12.0,72,0.00,,,0.00,Wunderground v.1.15,2013-04-26 09:53:00,
2013-04-26 04:58:00,44.7,36.2,29.94,South,191,8.0,12.0,72,0.00,,,0.00,Wunderground v.1.15,2013-04-26 09:58:00,
2013-04-26 05:03:00,44.7,36.2,29.94,SSW,200,8.0,13.0,72,0.00,,,0.00,Wunderground v.1.15,2013-04-26 10:03:00,
2013-04-26 05:08:00,44.6,36.5,29.94,SSW,198,10.0,13.0,73,0.00,,,0.00,Wunderground v.1.15,2013-04-26 10:08:00,
2013-04-26 05:13:00,44.7,36.2,29.94,SSW,198,8.0,11.0,72,0.00,,,0.00,Wunderground v.1.15,2013-04-26 10:13:00,
2013-04-26 05:18:00,44.8,36.3,29.94,SSW,202,8.0,13.0,72,0.00,,,0.00,Wunderground v.1.15,2013-04-26 10:18:00,
2013-04-26 05:23:00,44.8,36.3,29.94,SSW,200,7.0,11.0,72,0.00,,,0.00,Wunderground v.1.15,2013-04-26 10:23:00,
2013-04-26 05:28:00,44.8,36.3,29.93,SSW,203,10.0,13.0,72,0.00,,,0.00,Wunderground v.1.15,2013-04-26 10:28:00,
2013-04-26 05:33:00,44.5,36.0,29.94,SSW,199,9.0,10.0,72,0.00,,,0.00,Wunderground v.1.15,2013-04-26 10:33:00,
2013-04-26 05:38:00,44.3,35.8,29.94,SSW,211,7.0,12.0,72,0.00,,,0.00,Wunderground v.1.15,2013-04-26 10:38:00,
2013-04-26 05:43:00,44.1,36.0,29.93,SSW,207,7.0,11.0,73,0.00,,,0.00,Wunderground v.1.15,2013-04-26 10:43:00,
2013-04-26 05:48:00,44.1,36.0,29.94,SSW,199,7.0,11.0,73,0.00,,,0.00,Wunderground v.1.15,2013-04-26 10:48:00,
2013-04-26 05:53:00,43.7,35.6,29.94,SSW,204,5.0,8.0,73,0.00,,,0.00,Wunderground v.1.15,2013-04-26 10:53:00,
2013-04-26 05:58:00,43.2,35.5,29.94,SSW,203,3.0,9.0,74,0.00,,,0.00,Wunderground v.1.15,2013-04-26 10:58:00,
2013-04-26 06:03:00,43.2,35.8,29.94,SSW,205,7.0,7.0,75,0.00,,,0.00,Wunderground v.1.15,2013-04-26 11:03:00,
2013-04-26 06:08:00,43.4,35.7,29.94,SSW,205,7.0,10.0,74,0.00,,,0.00,Wunderground v.1.15,2013-04-26 11:08:00,
2013-04-26 06:13:00,42.7,35.0,29.94,SSW,205,5.0,7.0,74,0.00,,,0.00,Wunderground v.1.15,2013-04-26 11:13:00,
2013-04-26 06:18:00,41.6,34.3,29.95,SSW,206,1.0,7.0,75,0.00,,,0.00,Wunderground v.1.15,2013-04-26 11:18:00,
2013-04-26 06:23:00,40.5,33.5,29.94,SSW,206,2.0,4.0,76,0.00,,,0.00,Wunderground v.1.15,2013-04-26 11:23:00,
2013-04-26 06:28:00,39.7,33.4,29.95,SSW,206,2.0,4.0,78,0.00,,,0.00,Wunderground v.1.15,2013-04-26 11:28:00,
2013-04-26 06:33:00,39.4,33.4,29.95,SSW,206,0.0,3.0,79,0.00,,,0.00,Wunderground v.1.15,2013-04-26 11:33:00,
2013-04-26 06:38:00,38.9,32.9,29.95,SSW,213,3.0,4.0,79,0.00,,,0.00,Wunderground v.1.15,2013-04-26 11:38:00,
2013-04-26 06:44:00,39.1,33.8,29.95,SSW,213,2.0,4.0,81,0.00,,,0.00,Wunderground v.1.15,2013-04-26 11:44:00,
2013-04-26 06:49:00,39.2,33.9,29.95,SSW,213,3.0,4.0,81,0.00,,,0.00,Wunderground v.1.15,2013-04-26 11:49:00,
2013-04-26 06:54:00,39.4,34.1,29.95,SSW,213,2.0,4.0,81,0.00,,,0.00,Wunderground v.1.15,2013-04-26 11:54:00,
2013-04-26 06:59:00,39.7,34.3,29.95,SSW,213,1.0,4.0,81,0.00,,,0.00,Wunderground v.1.15,2013-04-26 11:59:00,
2013-04-26 07:04:00,40.3,34.9,29.95,SSW,213,4.0,5.0,81,0.00,,,0.00,Wunderground v.1.15,2013-04-26 12:04:00,
2013-04-26 07:09:00,41.1,35.7,29.95,SSW,213,2.0,5.0,81,0.00,,,0.00,Wunderground v.1.15,2013-04-26 12:09:00,
2013-04-26 07:14:00,41.7,36.0,29.95,SSW,213,4.0,6.0,80,0.00,,,0.00,Wunderground v.1.15,2013-04-26 12:14:00,
2013-04-26 07:19:00,42.5,36.4,29.96,SSW,213,4.0,7.0,79,0.00,,,0.00,Wunderground v.1.15,2013-04-26 12:19:00,
2013-04-26 07:24:00,43.3,36.9,29.95,SSW,213,7.0,7.0,78,0.00,,,0.00,Wunderground v.1.15,2013-04-26 12:24:00,
2013-04-26 07:29:00,44.2,37.1,29.96,SSW,212,7.0,8.0,76,0.00,,,0.00,Wunderground v.1.15,2013-04-26 12:29:00,
2013-04-26 07:34:00,44.8,37.4,29.96,SSW,212,5.0,7.0,75,0.00,,,0.00,Wunderground v.1.15,2013-04-26 12:34:00,
2013-04-26 07:39:00,45.3,37.5,29.96,SSW,210,6.0,9.0,74,0.00,,,0.00,Wunderground v.1.15,2013-04-26 12:39:00,
2013-04-26 07:44:00,45.8,37.6,29.96,SSW,209,5.0,10.0,73,0.00,,,0.00,Wunderground v.1.15,2013-04-26 12:44:00,
2013-04-26 07:49:00,46.3,37.8,29.96,SSW,207,7.0,10.0,72,0.00,,,0.00,Wunderground v.1.15,2013-04-26 12:49:00,
2013-04-26 07:54:00,46.8,37.9,29.97,SSW,202,11.0,11.0,71,0.00,,,0.00,Wunderground v.1.15,2013-04-26 12:54:00,
2013-04-26 07:59:00,47.3,38.0,29.97,SSW,206,5.0,11.0,70,0.00,,,0.00,Wunderground v.1.15,2013-04-26 12:59:00,
2013-04-26 08:04:00,47.8,38.1,29.97,SSW,205,9.0,11.0,69,0.00,,,0.00,Wunderground v.1.15,2013-04-26 13:04:00,
2013-04-26 08:09:00,48.1,38.4,29.97,SSW,205,10.0,12.0,69,0.00,,,0.00,Wunderground v.1.15,2013-04-26 13:09:00,
2013-04-26 08:14:00,48.9,38.8,29.97,SSW,208,8.0,13.0,68,0.00,,,0.00,Wunderground v.1.15,2013-04-26 13:14:00,
2013-04-26 08:19:00,49.7,38.8,29.97,SW,217,11.0,17.0,66,0.00,,,0.00,Wunderground v.1.15,2013-04-26 13:19:00,
2013-04-26 08:24:00,50.6,39.3,29.97,SW,217,14.0,16.0,65,0.00,,,0.00,Wunderground v.1.15,2013-04-26 13:24:00,
2013-04-26 08:29:00,51.2,39.0,29.97,SW,227,15.0,17.0,63,0.00,,,0.00,Wunderground v.1.15,2013-04-26 13:29:00,
2013-04-26 08:34:00,51.7,39.1,29.97,SW,222,14.0,18.0,62,0.00,,,0.00,Wunderground v.1.15,2013-04-26 13:34:00,
2013-04-26 08:39:00,52.2,39.1,29.97,SW,223,10.0,18.0,61,0.00,,,0.00,Wunderground v.1.15,2013-04-26 13:39:00,
2013-04-26 08:44:00,52.7,39.6,29.97,SW,229,13.0,15.0,61,0.00,,,0.00,Wunderground v.1.15,2013-04-26 13:44:00,
2013-04-26 08:49:00,53.1,39.6,29.98,SW,223,12.0,16.0,60,0.00,,,0.00,Wunderground v.1.15,2013-04-26 13:49:00,
2013-04-26 08:54:00,53.6,40.0,29.97,SW,223,16.0,16.0,60,0.00,,,0.00,Wunderground v.1.15,2013-04-26 13:54:00,
2013-04-26 09:00:00,53.8,39.8,29.97,SW,232,14.0,14.0,59,0.00,,,0.00,Wunderground v.1.15,2013-04-26 14:00:00,
2013-04-26 09:05:00,54.2,40.2,29.98,SW,216,18.0,20.0,59,0.00,,,0.00,Wunderground v.1.15,2013-04-26 14:05:00,
2013-04-26 09:10:00,54.8,39.8,29.97,SW,221,13.0,14.0,57,0.00,,,0.00,Wunderground v.1.15,2013-04-26 14:10:00,
2013-04-26 09:15:00,55.3,40.3,29.98,WSW,248,17.0,21.0,57,0.00,,,0.00,Wunderground v.1.15,2013-04-26 14:15:00,
2013-04-26 09:20:00,54.9,40.4,29.98,WSW,239,11.0,14.0,58,0.00,,,0.00,Wunderground v.1.15,2013-04-26 14:20:00,
2013-04-26 09:25:00,55.1,39.7,29.98,SW,234,16.0,21.0,56,0.00,,,0.00,Wunderground v.1.15,2013-04-26 14:25:00,
2013-04-26 09:30:00,55.6,40.1,29.98,SW,222,14.0,16.0,56,0.00,,,0.00,Wunderground v.1.15,2013-04-26 14:30:00,
2013-04-26 09:35:00,55.9,40.4,29.98,WSW,244,12.0,19.0,56,0.00,,,0.00,Wunderground v.1.15,2013-04-26 14:35:00,
2013-04-26 09:40:00,56.4,40.9,29.98,SW,234,12.0,13.0,56,0.00,,,0.00,Wunderground v.1.15,2013-04-26 14:40:00,
2013-04-26 09:45:00,56.8,40.8,29.98,SW,229,15.0,18.0,55,0.00,,,0.00,Wunderground v.1.15,2013-04-26 14:45:00,
2013-04-26 09:50:00,56.7,40.7,29.98,WSW,244,15.0,15.0,55,0.00,,,0.00,Wunderground v.1.15,2013-04-26 14:50:00,
2013-04-26 09:55:00,56.6,40.6,29.99,WSW,242,16.0,18.0,55,0.00,,,0.00,Wunderground v.1.15,2013-04-26 14:55:00,
2013-04-26 10:00:00,57.0,41.0,29.98,West,261,11.0,13.0,55,0.00,,,0.00,Wunderground v.1.15,2013-04-26 15:00:00,
2013-04-26 10:05:00,57.6,41.1,29.99,SW,230,12.0,16.0,54,0.00,,,0.00,Wunderground v.1.15,2013-04-26 15:05:00,
2013-04-26 10:10:00,58.2,40.6,29.99,WSW,257,12.0,12.0,52,0.00,,,0.00,Wunderground v.1.15,2013-04-26 15:10:00,
2013-04-26 10:16:00,58.5,40.4,29.99,WSW,243,15.0,16.0,51,0.00,,,0.00,Wunderground v.1.15,2013-04-26 15:16:00,
2013-04-26 10:21:00,58.6,41.0,29.99,WSW,246,10.0,11.0,52,0.00,,,0.00,Wunderground v.1.15,2013-04-26 15:21:00,
2013-04-26 10:26:00,58.9,40.3,30.00,WSW,240,10.0,15.0,50,0.00,,,0.00,Wunderground v.1.15,2013-04-26 15:26:00,
2013-04-26 10:31:00,59.0,40.9,30.00,SW,226,10.0,16.0,51,0.00,,,0.00,Wunderground v.1.15,2013-04-26 15:31:00,
2013-04-26 10:36:00,59.1,40.5,30.00,SW,233,7.0,16.0,50,0.00,,,0.00,Wunderground v.1.15,2013-04-26 15:36:00,
2013-04-26 10:41:00,59.8,41.1,30.00,WSW,251,8.0,14.0,50,0.00,,,0.00,Wunderground v.1.15,2013-04-26 15:41:00,
2013-04-26 10:46:00,60.0,40.2,30.00,WSW,248,11.0,14.0,48,0.00,,,0.00,Wunderground v.1.15,2013-04-26 15:46:00,
2013-04-26 10:51:00,60.1,40.9,30.00,WSW,240,12.0,18.0,49,0.00,,,0.00,Wunderground v.1.15,2013-04-26 15:51:00,
2013-04-26 10:56:00,60.6,40.8,30.01,West,268,13.0,18.0,48,0.00,,,0.00,Wunderground v.1.15,2013-04-26 15:56:00,
2013-04-26 11:01:00,61.0,41.2,30.01,WSW,245,9.0,12.0,48,0.00,,,0.00,Wunderground v.1.15,2013-04-26 16:01:00,
2013-04-26 11:06:00,61.4,41.5,30.01,WSW,250,11.0,13.0,48,0.00,,,0.00,Wunderground v.1.15,2013-04-26 16:06:00,
2013-04-26 11:11:00,61.1,40.7,30.01,WSW,255,8.0,11.0,47,0.00,,,0.00,Wunderground v.1.15,2013-04-26 16:11:00,
2013-04-26 11:16:00,61.5,40.5,30.01,West,271,7.0,12.0,46,0.00,,,0.00,Wunderground v.1.15,2013-04-26 16:16:00,
2013-04-26 11:21:00,62.2,41.7,30.01,West,260,7.0,12.0,47,0.00,,,0.00,Wunderground v.1.15,2013-04-26 16:21:00,
2013-04-26 11:26:00,62.4,41.3,30.02,WSW,256,9.0,13.0,46,0.00,,,0.00,Wunderground v.1.15,2013-04-26 16:26:00,
2013-04-26 11:31:00,62.7,42.7,30.02,West,266,14.0,14.0,48,0.00,,,0.00,Wunderground v.1.15,2013-04-26 16:31:00,
2013-04-26 11:36:00,63.0,40.7,30.02,WSW,253,7.0,14.0,44,0.00,,,0.00,Wunderground v.1.15,2013-04-26 16:36:00,
2013-04-26 11:41:00,63.4,41.1,30.02,WNW,291,6.0,9.0,44,0.00,,,0.00,Wunderground v.1.15,2013-04-26 16:41:00,
2013-04-26 11:46:00,64.0,41.0,30.02,West,269,13.0,13.0,43,0.00,,,0.00,Wunderground v.1.15,2013-04-26 16:46:00,
2013-04-26 11:51:00,64.1,41.1,30.02,WNW,288,9.0,13.0,43,0.00,,,0.00,Wunderground v.1.15,2013-04-26 16:51:00,
2013-04-26 11:56:00,64.3,41.3,30.02,WNW,290,9.0,13.0,43,0.00,,,0.00,Wunderground v.1.15,2013-04-26 16:56:00,
2013-04-26 12:01:00,64.8,39.9,30.02,NW,311,9.0,11.0,40,0.00,,,0.00,Wunderground v.1.15,2013-04-26 17:01:00,
2013-04-26 12:06:00,65.0,40.7,30.02,WNW,296,8.0,15.0,41,0.00,,,0.00,Wunderground v.1.15,2013-04-26 17:06:00,
2013-04-26 12:11:00,65.2,41.5,30.02,WNW,288,8.0,9.0,42,0.00,,,0.00,Wunderground v.1.15,2013-04-26 17:11:00,
2013-04-26 12:17:00,65.3,39.7,30.03,NW,311,9.0,12.0,39,0.00,,,0.00,Wunderground v.1.15,2013-04-26 17:17:00,
2013-04-26 12:22:00,65.6,40.6,30.02,NW,318,6.0,9.0,40,0.00,,,0.00,Wunderground v.1.15,2013-04-26 17:22:00,
2013-04-26 12:27:00,66.2,41.8,30.02,NW,306,14.0,14.0,41,0.00,,,0.00,Wunderground v.1.15,2013-04-26 17:27:00,
2013-04-26 12:32:00,66.2,41.8,30.02,NNE,15,5.0,10.0,41,0.00,,,0.00,Wunderground v.1.15,2013-04-26 17:32:00,
2013-04-26 12:37:00,66.5,40.1,30.02,West,273,4.0,12.0,38,0.00,,,0.00,Wunderground v.1.15,2013-04-26 17:37:00,
2013-04-26 12:42:00,66.8,41.0,30.02,NW,311,5.0,17.0,39,0.00,,,0.00,Wunderground v.1.15,2013-04-26 17:42:00,
2013-04-26 12:47:00,67.4,42.2,30.02,NW,319,1.0,17.0,40,0.00,,,0.00,Wunderground v.1.15,2013-04-26 17:47:00,
2013-04-26 12:52:00,67.6,42.4,30.02,NW,306,11.0,13.0,40,0.00,,,0.00,Wunderground v.1.15,2013-04-26 17:52:00,
2013-04-26 12:57:00,67.2,41.4,30.02,NW,311,4.0,14.0,39,0.00,,,0.00,Wunderground v.1.15,2013-04-26 17:57:00,
2013-04-26 13:02:00,66.8,42.3,30.02,NW,304,8.0,8.0,41,0.00,,,0.00,Wunderground v.1.15,2013-04-26 18:02:00,
2013-04-26 13:07:00,67.0,41.2,30.02,NW,318,3.0,14.0,39,0.00,,,0.00,Wunderground v.1.15,2013-04-26 18:07:00,
2013-04-26 13:12:00,67.4,42.9,30.02,NNW,327,7.0,11.0,41,0.00,,,0.00,Wunderground v.1.15,2013-04-26 18:12:00,
2013-04-26 13:17:00,68.2,41.6,30.02,NNW,327,10.0,12.0,38,0.00,,,0.00,Wunderground v.1.15,2013-04-26 18:17:00,
2013-04-26 13:22:00,67.8,40.6,30.02,NNW,327,3.0,11.0,37,0.00,,,0.00,Wunderground v.1.15,2013-04-26 18:22:00,
2013-04-26 13:27:00,68.1,40.8,30.02,NNW,327,8.0,12.0,37,0.00,,,0.00,Wunderground v.1.15,2013-04-26 18:27:00,
2013-04-26 13:32:00,68.5,38.2,30.01,NW,322,11.0,14.0,33,0.00,,,0.00,Wunderground v.1.15,2013-04-26 18:32:00,
2013-04-26 13:37:00,68.4,39.7,30.01,NW,317,7.0,16.0,35,0.00,,,0.00,Wunderground v.1.15,2013-04-26 18:37:00,
2013-04-26 13:42:00,68.2,40.2,30.01,NW,304,9.0,11.0,36,0.00,,,0.00,Wunderground v.1.15,2013-04-26 18:42:00,
2013-04-26 13:47:00,68.6,41.3,30.01,NW,326,3.0,11.0,37,0.00,,,0.00,Wunderground v.1.15,2013-04-26 18:47:00,
2013-04-26 13:52:00,68.9,42.2,30.01,NNW,329,11.0,13.0,38,0.00,,,0.00,Wunderground v.1.15,2013-04-26 18:52:00,
2013-04-26 13:57:00,69.1,41.0,30.01,NW,321,13.0,15.0,36,0.00,,,0.00,Wunderground v.1.15,2013-04-26 18:57:00,
2013-04-26 14:02:00,68.9,40.1,30.01,NW,319,10.0,12.0,35,0.00,,,0.00,Wunderground v.1.15,2013-04-26 19:02:00,
2013-04-26 14:07:00,69.1,41.0,30.01,NW,315,8.0,12.0,36,0.00,,,0.00,Wunderground v.1.15,2013-04-26 19:07:00,
2013-04-26 14:12:00,69.3,43.3,30.01,NW,311,4.0,13.0,39,0.00,,,0.00,Wunderground v.1.15,2013-04-26 19:12:00,
2013-04-26 14:17:00,69.5,40.6,30.01,NW,313,7.0,13.0,35,0.00,,,0.00,Wunderground v.1.15,2013-04-26 19:17:00,
2013-04-26 14:22:00,69.5,41.4,30.01,NW,313,6.0,11.0,36,0.00,,,0.00,Wunderground v.1.15,2013-04-26 19:22:00,
2013-04-26 14:27:00,69.0,40.9,30.01,NNW,343,9.0,11.0,36,0.00,,,0.00,Wunderground v.1.15,2013-04-26 19:27:00,
2013-04-26 14:33:00,69.6,39.2,30.01,NW,309,10.0,13.0,33,0.00,,,0.00,Wunderground v.1.15,2013-04-26 19:33:00,
2013-04-26 14:38:00,69.2,38.9,30.01,NW,322,6.0,13.0,33,0.00,,,0.00,Wunderground v.1.15,2013-04-26 19:38:00,
2013-04-26 14:43:00,69.0,39.4,30.01,NNW,328,9.0,11.0,34,0.00,,,0.00,Wunderground v.1.15,2013-04-26 19:43:00,
2013-04-26 14:48:00,69.4,39.8,30.01,NW,321,6.0,14.0,34,0.00,,,0.00,Wunderground v.1.15,2013-04-26 19:48:00,
2013-04-26 14:53:00,69.1,38.8,30.02,NW,320,5.0,9.0,33,0.00,,,0.00,Wunderground v.1.15,2013-04-26 19:53:00,
2013-04-26 14:58:00,68.9,38.6,30.02,NW,311,11.0,16.0,33,0.00,,,0.00,Wunderground v.1.15,2013-04-26 19:58:00,
2013-04-26 15:03:00,68.7,38.4,30.02,NW,317,8.0,12.0,33,0.00,,,0.00,Wunderground v.1.15,2013-04-26 20:03:00,
2013-04-26 15:08:00,68.6,38.3,30.01,NW,318,12.0,14.0,33,0.00,,,0.00,Wunderground v.1.15,2013-04-26 20:08:00,
2013-04-26 15:13:00,68.9,38.6,30.01,NW,325,7.0,11.0,33,0.00,,,0.00,Wunderground v.1.15,2013-04-26 20:13:00,
2013-04-26 15:18:00,69.2,39.6,30.01,NW,325,4.0,11.0,34,0.00,,,0.00,Wunderground v.1.15,2013-04-26 20:18:00,
2013-04-26 15:23:00,69.7,40.1,30.01,NW,323,4.0,10.0,34,0.00,,,0.00,Wunderground v.1.15,2013-04-26 20:23:00,
2013-04-26 15:28:00,69.4,39.0,30.01,NW,324,5.0,11.0,33,0.00,,,0.00,Wunderground v.1.15,2013-04-26 20:28:00,
2013-04-26 15:33:00,69.2,38.1,30.00,NW,325,2.0,9.0,32,0.00,,,0.00,Wunderground v.1.15,2013-04-26 20:33:00,
2013-04-26 15:38:00,70.0,38.0,30.01,NW,311,7.0,14.0,31,0.00,,,0.00,Wunderground v.1.15,2013-04-26 20:38:00,
2013-04-26 15:43:00,69.7,38.5,30.01,NW,311,4.0,9.0,32,0.00,,,0.00,Wunderground v.1.15,2013-04-26 20:43:00,
2013-04-26 15:48:00,69.9,38.7,30.01,NW,313,9.0,11.0,32,0.00,,,0.00,Wunderground v.1.15,2013-04-26 20:48:00,
2013-04-26 15:53:00,69.9,39.5,30.00,NW,323,3.0,10.0,33,0.00,,,0.00,Wunderground v.1.15,2013-04-26 20:53:00,
2013-04-26 15:58:00,69.8,38.6,30.00,NW,304,5.0,12.0,32,0.00,,,0.00,Wunderground v.1.15,2013-04-26 20:58:00,
2013-04-26 16:03:00,69.9,38.7,30.00,NW,309,6.0,11.0,32,0.00,,,0.00,Wunderground v.1.15,2013-04-26 21:03:00,
2013-04-26 16:08:00,69.4,38.2,30.00,NW,325,5.0,11.0,32,0.00,,,0.00,Wunderground v.1.15,2013-04-26 21:08:00,
2013-04-26 16:13:00,69.7,37.7,30.01,NW,325,1.0,7.0,31,0.00,,,0.00,Wunderground v.1.15,2013-04-26 21:13:00,
2013-04-26 16:19:00,70.1,37.2,30.00,NW,323,6.0,10.0,30,0.00,,,0.00,Wunderground v.1.15,2013-04-26 21:19:00,
2013-04-26 16:24:00,70.2,38.9,30.01,NW,323,1.0,7.0,32,0.00,,,0.00,Wunderground v.1.15,2013-04-26 21:24:00,
2013-04-26 16:29:00,70.3,37.4,30.01,NW,323,7.0,9.0,30,0.00,,,0.00,Wunderground v.1.15,2013-04-26 21:29:00,
2013-04-26 16:34:00,70.4,37.5,30.01,NW,317,7.0,13.0,30,0.00,,,0.00,Wunderground v.1.15,2013-04-26 21:34:00,
2013-04-26 16:39:00,70.1,35.5,30.01,NW,311,3.0,16.0,28,0.00,,,0.00,Wunderground v.1.15,2013-04-26 21:39:00,
2013-04-26 16:44:00,70.1,37.2,30.01,NW,311,4.0,8.0,30,0.00,,,0.00,Wunderground v.1.15,2013-04-26 21:44:00,
2013-04-26 16:49:00,70.3,35.6,30.01,NW,319,3.0,11.0,28,0.00,,,0.00,Wunderground v.1.15,2013-04-26 21:49:00,
2013-04-26 16:54:00,70.1,37.2,30.01,WNW,303,9.0,13.0,30,0.00,,,0.00,Wunderground v.1.15,2013-04-26 21:54:00,
2013-04-26 16:59:00,70.1,37.2,30.01,NW,321,10.0,14.0,30,0.00,,,0.00,Wunderground v.1.15,2013-04-26 21:59:00,
2013-04-26 17:04:00,70.0,37.1,30.02,NW,323,9.0,11.0,30,0.00,,,0.00,Wunderground v.1.15,2013-04-26 22:04:00,
2013-04-26 17:09:00,69.6,36.8,30.02,NW,316,9.0,15.0,30,0.00,,,0.00,Wunderground v.1.15,2013-04-26 22:09:00,
2013-04-26 17:14:00,69.4,39.0,30.02,NW,323,7.0,16.0,33,0.00,,,0.00,Wunderground v.1.15,2013-04-26 22:14:00,
2013-04-26 17:19:00,69.1,38.0,30.02,NW,322,12.0,16.0,32,0.00,,,0.00,Wunderground v.1.15,2013-04-26 22:19:00,
2013-04-26 17:24:00,69.1,38.8,30.02,NNW,336,4.0,13.0,33,0.00,,,0.00,Wunderground v.1.15,2013-04-26 22:24:00,
2013-04-26 17:29:00,69.2,38.9,30.02,NW,323,15.0,15.0,33,0.00,,,0.00,Wunderground v.1.15,2013-04-26 22:29:00,
2013-04-26 17:34:00,68.8,38.5,30.02,NW,307,15.0,16.0,33,0.00,,,0.00,Wunderground v.1.15,2013-04-26 22:34:00,
2013-04-26 17:39:00,68.3,38.1,30.02,NW,325,11.0,18.0,33,0.00,,,0.00,Wunderground v.1.15,2013-04-26 22:39:00,
2013-04-26 17:44:00,68.1,37.9,30.02,NW,319,10.0,15.0,33,0.00,,,0.00,Wunderground v.1.15,2013-04-26 22:44:00,
2013-04-26 17:49:00,68.0,38.6,30.02,NNW,327,11.0,15.0,34,0.00,,,0.00,Wunderground v.1.15,2013-04-26 22:49:00,
2013-04-26 17:54:00,68.0,38.6,30.02,NW,309,7.0,13.0,34,0.00,,,0.00,Wunderground v.1.15,2013-04-26 22:54:00,
2013-04-26 17:59:00,68.0,38.6,30.02,NW,306,9.0,13.0,34,0.00,,,0.00,Wunderground v.1.15,2013-04-26 22:59:00,
2013-04-26 18:04:00,68.1,37.1,30.03,NW,323,8.0,11.0,32,0.00,,,0.00,Wunderground v.1.15,2013-04-26 23:04:00,
2013-04-26 18:10:00,67.8,35.2,30.03,NW,317,9.0,9.0,30,0.00,,,0.00,Wunderground v.1.15,2013-04-26 23:10:00,
2013-04-26 18:16:00,67.4,34.9,30.03,NW,320,8.0,14.0,30,0.00,,,0.00,Wunderground v.1.15,2013-04-26 23:16:00,
2013-04-26 18:21:00,67.1,35.4,30.03,NW,323,7.0,11.0,31,0.00,,,0.00,Wunderground v.1.15,2013-04-26 23:21:00,
2013-04-26 18:26:00,66.9,34.4,30.03,NW,318,7.0,14.0,30,0.00,,,0.00,Wunderground v.1.15,2013-04-26 23:26:00,
2013-04-26 18:31:00,66.9,33.6,30.03,NW,308,10.0,13.0,29,0.00,,,0.00,Wunderground v.1.15,2013-04-26 23:31:00,
2013-04-26 18:36:00,66.7,34.3,30.04,NW,307,9.0,14.0,30,0.00,,,0.00,Wunderground v.1.15,2013-04-26 23:36:00,
2013-04-26 18:41:00,66.7,35.1,30.04,NW,326,8.0,10.0,31,0.00,,,0.00,Wunderground v.1.15,2013-04-26 23:41:00,
2013-04-26 18:46:00,66.3,33.1,30.04,NW,304,10.0,16.0,29,0.00,,,0.00,Wunderground v.1.15,2013-04-26 23:46:00,
2013-04-26 18:51:00,66.1,33.7,30.04,NNW,330,6.0,10.0,30,0.00,,,0.00,Wunderground v.1.15,2013-04-26 23:51:00,
2013-04-26 19:06:00,65.1,36.0,30.04,NW,325,4.0,11.0,34,0.00,,,0.00,Wunderground v.1.15,2013-04-27 00:06:00,
2013-04-26 19:11:00,64.8,37.2,30.05,NW,326,10.0,11.0,36,0.00,,,0.00,Wunderground v.1.15,2013-04-27 00:11:00,
2013-04-26 19:16:00,64.2,38.7,30.05,NW,323,5.0,12.0,39,0.00,,,0.00,Wunderground v.1.15,2013-04-27 00:16:00,
2013-04-26 19:21:00,63.7,38.9,30.05,NW,325,4.0,7.0,40,0.00,,,0.00,Wunderground v.1.15,2013-04-27 00:21:00,
2013-04-26 19:26:00,63.2,37.8,30.05,NW,323,7.0,9.0,39,0.00,,,0.00,Wunderground v.1.15,2013-04-27 00:26:00,
2013-04-26 19:31:00,62.7,37.4,30.05,NW,326,3.0,6.0,39,0.00,,,0.00,Wunderground v.1.15,2013-04-27 00:31:00,
2013-04-26 19:36:00,62.2,38.2,30.06,NW,326,3.0,6.0,41,0.00,,,0.00,Wunderground v.1.15,2013-04-27 00:36:00,
2013-04-26 19:41:00,61.6,38.3,30.06,NNW,329,4.0,5.0,42,0.00,,,0.00,Wunderground v.1.15,2013-04-27 00:41:00,
2013-04-26 19:46:00,60.8,38.1,30.06,NNW,329,4.0,5.0,43,0.00,,,0.00,Wunderground v.1.15,2013-04-27 00:46:00,
2013-04-26 19:51:00,60.1,38.1,30.06,NNW,328,3.0,5.0,44,0.00,,,0.00,Wunderground v.1.15,2013-04-27 00:51:00,
2013-04-26 19:56:00,59.3,37.9,30.06,NW,325,3.0,5.0,45,0.00,,,0.00,Wunderground v.1.15,2013-04-27 00:56:00,
2013-04-26 20:01:00,58.5,37.2,30.06,NW,325,2.0,4.0,45,0.00,,,0.00,Wunderground v.1.15,2013-04-27 01:01:00,
2013-04-26 20:06:00,57.6,36.4,30.06,NW,325,2.0,5.0,45,0.00,,,0.00,Wunderground v.1.15,2013-04-27 01:06:00,
2013-04-26 20:12:00,56.7,36.1,30.06,NW,325,2.0,4.0,46,0.00,,,0.00,Wunderground v.1.15,2013-04-27 01:12:00,
2013-04-26 20:17:00,56.0,36.0,30.06,NW,325,0.0,4.0,47,0.00,,,0.00,Wunderground v.1.15,2013-04-27 01:17:00,
2013-04-26 20:22:00,55.2,35.8,30.06,NW,325,0.0,1.0,48,0.00,,,0.00,Wunderground v.1.15,2013-04-27 01:22:00,
2013-04-26 20:27:00,54.5,35.2,30.06,NW,325,2.0,2.0,48,0.00,,,0.00,Wunderground v.1.15,2013-04-27 01:27:00,
2013-04-26 20:32:00,54.1,35.3,30.06,NW,325,1.0,3.0,49,0.00,,,0.00,Wunderground v.1.15,2013-04-27 01:32:00,
2013-04-26 20:38:00,53.5,35.3,30.07,NW,325,0.0,3.0,50,0.00,,,0.00,Wunderground v.1.15,2013-04-27 01:38:00,
2013-04-26 20:43:00,52.7,35.1,30.07,NW,325,0.0,1.0,51,0.00,,,0.00,Wunderground v.1.15,2013-04-27 01:43:00,
2013-04-26 20:48:00,52.1,35.5,30.07,NW,325,0.0,4.0,53,0.00,,,0.00,Wunderground v.1.15,2013-04-27 01:48:00,
2013-04-26 20:53:00,51.8,35.7,30.07,NW,325,0.0,2.0,54,0.00,,,0.00,Wunderground v.1.15,2013-04-27 01:53:00,
2013-04-26 20:58:00,51.5,35.4,30.07,NW,325,0.0,2.0,54,0.00,,,0.00,Wunderground v.1.15,2013-04-27 01:58:00,
2013-04-26 21:03:00,51.3,35.2,30.07,NW,325,0.0,2.0,54,0.00,,,0.00,Wunderground v.1.15,2013-04-27 02:03:00,
2013-04-26 21:08:00,50.9,34.8,30.07,NW,325,0.0,2.0,54,0.00,,,0.00,Wunderground v.1.15,2013-04-27 02:08:00,
2013-04-26 21:13:00,50.5,35.4,30.07,NW,325,2.0,3.0,56,0.00,,,0.00,Wunderground v.1.15,2013-04-27 02:13:00,
2013-04-26 21:18:00,50.5,35.8,30.08,NW,325,3.0,4.0,57,0.00,,,0.00,Wunderground v.1.15,2013-04-27 02:18:00,
2013-04-26 21:23:00,50.6,35.9,30.07,NW,325,2.0,4.0,57,0.00,,,0.00,Wunderground v.1.15,2013-04-27 02:23:00,
2013-04-26 21:28:00,50.6,36.4,30.08,NW,325,4.0,5.0,58,0.00,,,0.00,Wunderground v.1.15,2013-04-27 02:28:00,
2013-04-26 21:33:00,50.6,36.8,30.08,NW,325,4.0,5.0,59,0.00,,,0.00,Wunderground v.1.15,2013-04-27 02:33:00,
2013-04-26 21:38:00,50.6,36.8,30.08,NW,325,2.0,5.0,59,0.00,,,0.00,Wunderground v.1.15,2013-04-27 02:38:00,
2013-04-26 21:43:00,50.3,36.9,30.08,NW,325,5.0,5.0,60,0.00,,,0.00,Wunderground v.1.15,2013-04-27 02:43:00,
2013-04-26 21:48:00,50.3,37.4,30.08,NW,325,3.0,6.0,61,0.00,,,0.00,Wunderground v.1.15,2013-04-27 02:48:00,
2013-04-26 21:53:00,50.1,37.6,30.08,NW,325,3.0,5.0,62,0.00,,,0.00,Wunderground v.1.15,2013-04-27 02:53:00,
2013-04-26 21:58:00,49.7,37.6,30.08,NW,325,3.0,5.0,63,0.00,,,0.00,Wunderground v.1.15,2013-04-27 02:58:00,
2013-04-26 22:03:00,49.3,37.6,30.08,NW,325,2.0,3.0,64,0.00,,,0.00,Wunderground v.1.15,2013-04-27 03:03:00,
2013-04-26 22:08:00,48.8,37.2,30.08,NW,325,1.0,3.0,64,0.00,,,0.00,Wunderground v.1.15,2013-04-27 03:08:00,
2013-04-26 22:13:00,48.5,37.7,30.09,NW,325,3.0,4.0,66,0.00,,,0.00,Wunderground v.1.15,2013-04-27 03:13:00,
2013-04-26 22:18:00,47.9,37.5,30.09,NW,325,0.0,4.0,67,0.00,,,0.00,Wunderground v.1.15,2013-04-27 03:18:00,
2013-04-26 22:23:00,47.2,37.2,30.09,NW,325,1.0,3.0,68,0.00,,,0.00,Wunderground v.1.15,2013-04-27 03:23:00,
2013-04-26 22:28:00,46.9,37.6,30.09,NW,325,3.0,4.0,70,0.00,,,0.00,Wunderground v.1.15,2013-04-27 03:28:00,
2013-04-26 22:34:00,47.5,38.2,30.09,NW,325,3.0,4.0,70,0.00,,,0.00,Wunderground v.1.15,2013-04-27 03:34:00,
2013-04-26 22:39:00,48.1,38.4,30.09,NW,325,2.0,5.0,69,0.00,,,0.00,Wunderground v.1.15,2013-04-27 03:39:00,
2013-04-26 22:44:00,48.0,37.9,30.09,NW,325,3.0,4.0,68,0.00,,,0.00,Wunderground v.1.15,2013-04-27 03:44:00,
2013-04-26 22:49:00,47.6,37.6,30.09,NW,325,0.0,4.0,68,0.00,,,0.00,Wunderground v.1.15,2013-04-27 03:49:00,
2013-04-26 22:54:00,46.9,37.3,30.09,NW,325,0.0,3.0,69,0.00,,,0.00,Wunderground v.1.15,2013-04-27 03:54:00,
2013-04-26 22:59:00,46.3,37.4,30.09,NW,325,0.0,3.0,71,0.00,,,0.00,Wunderground v.1.15,2013-04-27 03:59:00,
2013-04-26 23:01:00,46.0,37.1,30.09,NW,325,0.0,0.0,71,0.00,,,0.00,Wunderground v.1.15,2013-04-27 04:01:00,
2013-04-26 23:06:00,45.5,37.0,30.09,NW,325,0.0,1.0,72,0.00,,,0.00,Wunderground v.1.15,2013-04-27 04:06:00,
2013-04-26 23:11:00,45.2,37.1,30.09,NW,325,0.0,0.0,73,0.00,,,0.00,Wunderground v.1.15,2013-04-27 04:11:00,
2013-04-26 23:16:00,45.0,37.2,30.09,NW,325,1.0,2.0,74,0.00,,,0.00,Wunderground v.1.15,2013-04-27 04:16:00,
2013-04-26 23:21:00,45.4,37.6,30.09,NW,325,0.0,4.0,74,0.00,,,0.00,Wunderground v.1.15,2013-04-27 04:21:00,
2013-04-26 23:26:00,45.6,37.4,30.09,NW,325,0.0,4.0,73,0.00,,,0.00,Wunderground v.1.15,2013-04-27 04:26:00,
2013-04-26 23:32:00,45.3,36.8,30.09,NW,325,0.0,1.0,72,0.00,,,0.00,Wunderground v.1.15,2013-04-27 04:32:00,
2013-04-26 23:37:00,45.0,36.9,30.09,NW,325,0.0,2.0,73,0.00,,,0.00,Wunderground v.1.15,2013-04-27 04:37:00,
2013-04-26 23:42:00,44.5,36.4,30.09,NW,325,0.0,2.0,73,0.00,,,0.00,Wunderground v.1.15,2013-04-27 04:42:00,
2013-04-26 23:47:00,44.3,36.5,30.09,NW,325,0.0,2.0,74,0.00,,,0.00,Wunderground v.1.15,2013-04-27 04:47:00,
2013-04-26 23:52:00,44.3,36.5,30.09,NW,325,0.0,0.0,74,0.00,,,0.00,Wunderground v.1.15,2013-04-27 04:52:00,
2013-04-26 23:57:00,44.2,36.4,30.09,NW,325,0.0,0.0,74,0.00,,,0.00,Wunderground v.1.15,2013-04-27 04:57:00,